FW2389 Weather Reports


Display with metric or nautical units.
time (UTC)temp
F
wind
direction
speed
MPH
gust
MPH
rain 1hr
in
rain 24hr
in
rain mn
in
humidity
%
barometer
mb
20260504225011 57 256 18.0 26.0 0.00 0.00 0.00 73 1012.7
20260504224517 57 243 18.0 30.0 0.00 0.00 0.00 72 1012.9
20260504224010 57 260 18.0 29.0 0.00 0.00 0.00 72 1012.7
20260504223511 57 271 22.0 28.0 0.00 0.00 0.00 71 1012.7
20260504223010 57 257 21.0 29.0 0.00 0.00 0.00 71 1012.7
20260504222510 57 273 21.0 29.0 0.00 0.00 0.00 71 1012.8
20260504222009 57 252 18.0 29.0 0.00 0.00 0.00 71 1012.7
20260504221509 57 256 21.0 32.0 0.00 0.00 0.00 70 1012.8
20260504221009 57 277 21.0 33.0 0.00 0.00 0.00 69 1012.8
20260504220509 58 230 22.0 33.0 0.00 0.00 0.00 69 1012.8
20260504220010 58 282 20.0 29.0 0.00 0.00 0.00 69 1012.8
20260504215512 58 255 20.0 27.0 0.00 0.00 0.00 68 1012.9
20260504215008 58 255 19.0 28.0 0.00 0.00 0.00 68 1012.8
20260504214509 58 259 21.0 28.0 0.00 0.00 0.00 68 1012.9
20260504214012 58 279 19.0 28.0 0.00 0.00 0.00 68 1012.8
20260504213508 58 248 21.0 29.0 0.00 0.00 0.00 68 1012.9
20260504213008 58 269 21.0 34.0 0.00 0.00 0.00 67 1012.8
20260504212507 58 249 25.0 34.0 0.00 0.00 0.00 67 1012.7
20260504212006 57 250 23.0 33.0 0.00 0.00 0.00 67 1012.8
20260504211506 58 255 23.0 33.0 0.00 0.00 0.00 66 1012.8
20260504211006 58 259 23.0 31.0 0.00 0.00 0.00 65 1012.9
20260504210508 58 260 23.0 30.0 0.00 0.00 0.00 64 1013.0
20260504210010 58 239 22.0 34.0 0.00 0.00 0.00 65 1012.8
20260504205505 58 259 21.0 34.0 0.00 0.00 0.00 65 1012.9
20260504205007 58 251 24.0 33.0 0.00 0.00 0.00 65 1012.8
20260504204509 58 248 21.0 31.0 0.00 0.00 0.00 67 1012.9
20260504204004 58 266 23.0 32.0 0.00 0.00 0.00 66 1012.8
20260504203504 59 240 26.0 32.0 0.00 0.00 0.00 62 1012.7
20260504203004 59 255 23.0 31.0 0.00 0.00 0.00 61 1012.7
20260504202506 60 253 23.0 30.0 0.00 0.00 0.00 60 1012.7
20260504202004 60 256 19.0 31.0 0.00 0.00 0.00 60 1012.7
20260504201502 60 259 20.0 31.0 0.00 0.00 0.00 60 1012.8
20260504201003 60 269 20.0 28.0 0.00 0.00 0.00 60 1012.8
20260504200502 60 250 19.0 26.0 0.00 0.00 0.00 59 1012.9
20260504200001 60 274 18.0 29.0 0.00 0.00 0.00 59 1013.0
20260504195601 60 244 18.0 29.0 0.00 0.00 0.00 59 1013.1
20260504195101 60 257 19.0 27.0 0.00 0.00 0.00 59 1013.0
20260504194601 60 256 19.0 27.0 0.00 0.00 0.00 60 1013.0
20260504194100 60 266 20.0 27.0 0.00 0.00 0.00 60 1013.0
20260504193600 60 259 20.0 28.0 0.00 0.00 0.00 61 1013.0
20260504193059 60 247 20.0 28.0 0.00 0.00 0.00 61 1013.1
20260504192559 60 264 19.0 26.0 0.00 0.00 0.00 62 1013.0
20260504192103 60 257 21.0 26.0 0.00 0.00 0.00 60 1013.0
20260504191617 60 250 16.0 25.0 0.00 0.00 0.00 61 1013.0
20260504191059 61 248 18.0 25.0 0.00 0.00 0.00 61 1013.1
20260504190601 60 260 20.0 27.0 0.00 0.00 0.00 61 1013.1
20260504190057 60 249 21.0 27.0 0.00 0.00 0.00 60 1013.1
20260504185557 60 262 20.0 27.0 0.00 0.00 0.00 61 1013.2
20260504185056 60 255 18.0 28.0 0.00 0.00 0.00 60 1013.3
20260504184556 60 259 20.0 28.0 0.00 0.00 0.00 60 1013.2
20260504184056 60 253 19.0 27.0 0.00 0.00 0.00 61 1013.3
20260504183555 60 240 20.0 27.0 0.00 0.00 0.00 61 1013.5
20260504183055 60 245 18.0 27.0 0.00 0.00 0.00 59 1013.4
20260504182553 60 248 20.0 26.0 0.00 0.00 0.00 58 1013.6
20260504182053 61 266 19.0 28.0 0.00 0.00 0.00 57 1013.6
20260504181553 61 261 20.0 28.0 0.00 0.00 0.00 57 1013.6
20260504181053 60 268 19.0 29.0 0.00 0.00 0.00 57 1013.6
20260504180553 61 242 18.0 29.0 0.00 0.00 0.00 56 1013.7
20260504180051 61 256 21.0 27.0 0.00 0.00 0.00 55 1013.7
20260504175551 61 256 21.0 30.0 0.00 0.00 0.00 55 1013.8
20260504175051 60 243 23.0 30.0 0.00 0.00 0.00 56 1013.8
20260504174555 61 246 21.0 29.0 0.00 0.00 0.00 54 1013.8
20260504174051 61 267 19.0 29.0 0.00 0.00 0.00 54 1013.8
20260504173550 61 255 20.0 30.0 0.00 0.00 0.00 54 1013.9
20260504173051 61 257 19.0 30.0 0.00 0.00 0.00 54 1013.9
20260504172549 61 250 19.0 29.0 0.00 0.00 0.00 53 1013.9
20260504172049 61 274 20.0 26.0 0.00 0.00 0.00 53 1014.0
20260504171549 61 265 18.0 26.0 0.00 0.00 0.00 53 1014.0
20260504171048 61 257 15.0 25.0 0.00 0.00 0.00 55 1014.1
20260504170548 61 283 19.0 25.0 0.00 0.00 0.00 52 1014.1
20260504151036 61 328 10.0 20.0 0.00 0.00 0.00 53 1015.1
20260504150536 61 240 15.0 22.0 0.00 0.00 0.00 52 1015.0
20260504141034 60 254 13.0 20.0 0.00 0.00 0.00 54 1015.2
20260504140532 60 262 14.0 20.0 0.00 0.00 0.00 54 1015.2
20260504130526 57 298 6.0 19.0 0.00 0.00 0.00 59 1015.6
20260504110503 52 267 8.0 13.0 0.00 0.00 0.00 59 1015.5
20260504100557 50 278 10.0 15.0 0.00 0.00 0.00 62 1015.2
20260504081547 51 288 11.0 17.0 0.00 0.00 0.00 58 1014.8
20260504081044 51 283 8.0 18.0 0.00 0.00 0.00 58 1014.8
20260504080545 51 279 11.0 18.0 0.00 0.00 0.00 58 1014.7
20260504050527 49 259 3.0 5.0 0.00 0.00 0.00 72 1014.3
20260504045524 50 243 5.0 7.0 0.00 0.00 0.00 73 1014.3
20260504045030 50 252 5.0 7.0 0.00 0.00 0.00 68 1014.3
20260504044523 51 267 4.0 7.0 0.00 0.00 0.00 55 1014.4
20260504044025 50 275 5.0 6.0 0.00 0.00 0.00 55 1014.4
20260504043521 50 279 4.0 5.0 0.00 0.00 0.00 55 1014.3
20260504043021 50 266 3.0 5.0 0.00 0.00 0.00 54 1014.3
20260504042521 50 267 3.0 5.0 0.00 0.00 0.00 53 1014.3
20260504042019 50 280 3.0 5.0 0.00 0.00 0.00 52 1014.2
20260504041519 50 274 3.0 5.0 0.00 0.00 0.00 53 1014.3
20260504041017 50 283 3.0 6.0 0.00 0.00 0.00 54 1014.2
20260504040517 50 271 4.0 6.0 0.00 0.00 0.00 55 1014.2
20260504040015 50 276 4.0 6.0 0.00 0.00 0.00 57 1014.2
20260504035515 49 270 4.0 6.0 0.00 0.00 0.00 63 1014.2
20260504035014 49 280 4.0 6.0 0.00 0.00 0.00 71 1014.2
20260504034514 49 273 3.0 5.0 0.00 0.00 0.00 74 1014.1
20260504034014 49 266 4.0 5.0 0.00 0.00 0.00 77 1014.1
20260504033514 49 264 4.0 5.0 0.00 0.00 0.00 78 1014.0
20260504033014 49 269 3.0 5.0 0.00 0.00 0.00 80 1014.1
20260504032515 49 253 3.0 5.0 0.00 0.00 0.00 79 1014.1
20260504032014 49 248 4.0 7.0 0.00 0.00 0.00 78 1014.1
20260504031514 50 243 4.0 7.0 0.00 0.00 0.00 77 1014.1
20260504031013 50 247 5.0 7.0 0.00 0.00 0.00 76 1014.1
20260504030513 50 245 5.0 7.0 0.00 0.00 0.00 76 1014.1
20260504030015 50 248 5.0 7.0 0.00 0.00 0.00 75 1014.0
20260504025512 49 255 5.0 6.0 0.00 0.00 0.00 75 1014.1
20260504025014 49 260 5.0 6.0 0.00 0.00 0.00 74 1014.0
20260504024512 49 257 5.0 6.0 0.00 0.00 0.00 73 1014.0
20260504024011 49 262 5.0 7.0 0.00 0.00 0.00 72 1014.0
20260504023512 50 257 5.0 7.0 0.00 0.00 0.00 71 1014.0
20260504023011 50 255 4.0 11.0 0.00 0.00 0.00 69 1014.1
20260504022510 50 271 5.0 11.0 0.00 0.00 0.00 65 1014.1
20260504022011 50 257 7.0 9.0 0.00 0.00 0.00 67 1014.0
20260504021511 50 252 7.0 8.0 0.00 0.00 0.00 67 1014.0
20260504021009 50 249 5.0 7.0 0.00 0.00 0.00 69 1014.0
20260504020514 50 260 5.0 6.0 0.00 0.00 0.00 69 1014.0
20260504020011 50 263 5.0 7.0 0.00 0.00 0.00 68 1014.0
20260504015509 50 273 5.0 7.0 0.00 0.00 0.00 68 1014.1
20260504015009 50 259 5.0 7.0 0.00 0.00 0.00 69 1014.0
20260504014508 49 268 5.0 7.0 0.00 0.00 0.00 68 1014.0
20260504014006 50 264 4.0 6.0 0.00 0.00 0.00 68 1013.9
20260504013511 50 264 5.0 7.0 0.00 0.00 0.00 67 1013.8
20260504013007 50 266 5.0 7.0 0.00 0.00 0.00 65 1013.8
20260504012506 50 263 5.0 7.0 0.00 0.00 0.00 65 1013.7
20260504012006 50 276 4.0 6.0 0.00 0.00 0.00 65 1013.7
20260504011505 50 265 4.0 6.0 0.00 0.00 0.00 64 1013.7
20260504011007 50 269 3.0 7.0 0.00 0.00 0.00 65 1013.4
20260504010503 50 277 5.0 7.0 0.00 0.00 0.00 65 1013.5
20260504010003 50 266 5.0 6.0 0.00 0.00 0.00 60 1013.2
20260504005503 50 271 3.0 5.0 0.00 0.00 0.00 55 1013.2
20260504005002 50 278 3.0 5.0 0.00 0.00 0.00 49 1013.3
20260504004505 51 280 3.0 4.0 0.00 0.00 0.00 45 1013.2
20260504004001 51 285 3.0 4.0 0.00 0.00 0.00 44 1013.2
20260504003500 51 290 3.0 5.0 0.00 0.00 0.00 44 1013.0
20260504003109 51 295 3.0 5.0 0.00 0.00 0.00 44 1012.9
20260504002559 51 294 3.0 5.0 0.00 0.00 0.00 47 1012.8
20260504002059 51 298 3.0 5.0 0.00 0.00 0.00 51 1012.8
20260504001602 51 304 3.0 6.0 0.00 0.00 0.00 54 1012.7
20260504001058 51 309 3.0 6.0 0.00 0.00 0.00 55 1012.7
20260504000558 51 319 3.0 5.0 0.00 0.00 0.00 54 1012.6
20260504000104 51 313 3.0 5.0 0.00 0.00 0.00 54 1012.5
20260503235557 51 307 3.0 6.0 0.00 0.00 0.00 55 1012.6
20260503235057 51 302 3.0 6.0 0.00 0.00 0.00 54 1012.5
20260503234557 51 314 4.0 6.0 0.00 0.00 0.00 54 1012.5
20260503234057 51 308 3.0 7.0 0.00 0.00 0.00 55 1012.4
20260503233600 51 328 4.0 9.0 0.00 0.00 0.00 56 1012.4
20260503233058 51 301 5.0 9.0 0.00 0.00 0.00 55 1012.4
20260503232600 52 311 6.0 11.0 0.00 0.00 0.00 53 1012.4
20260503232056 53 309 5.0 11.0 0.00 0.00 0.00 49 1012.3
20260503231556 53 331 6.0 12.0 0.00 0.00 0.00 47 1012.3
20260503231057 53 331 7.0 14.0 0.00 0.00 0.00 50 1012.3
20260503230556 53 334 7.0 14.0 0.00 0.00 0.00 49 1012.2
20260503230110 53 325 9.0 13.0 0.00 0.00 0.00 49 1012.3
20260503225554 53 328 6.0 12.0 0.00 0.00 0.00 51 1012.3